| time (UTC) | temp F | wind direction | speed knots | gust knots | rain 1hr in | rain 24hr in | rain mn in | humidity % | barometer mb |
| 20260504044555 | 46 | 0 | 0.0 | 0.0 | 0.00 | 0.00 | 0.00 | 69 | 1003.3 |
| 20260504043051 | 47 | 0 | 0.0 | 0.0 | 0.00 | 0.00 | 0.00 | 66 | 1003.6 |
| 20260504041559 | 48 | 0 | 0.0 | 0.0 | 0.00 | 0.00 | 0.00 | 63 | 1003.6 |
| 20260504040052 | 50 | 0 | 0.0 | 1.7 | 0.00 | 0.00 | 0.00 | 59 | 1003.9 |
| 20260504034555 | 49 | 0 | 0.0 | 0.9 | 0.00 | 0.00 | 0.00 | 62 | 1004.1 |
| 20260504033057 | 50 | 0 | 0.0 | 0.0 | 0.00 | 0.00 | 0.00 | 60 | 1004.3 |
| 20260504031605 | 51 | 0 | 0.0 | 0.0 | 0.00 | 0.00 | 0.00 | 56 | 1004.5 |
| 20260504030112 | 52 | 0 | 0.0 | 0.0 | 0.00 | 0.00 | 0.00 | 54 | 1004.8 |
| 20260504024551 | 53 | 0 | 0.0 | 0.9 | 0.00 | 0.00 | 0.00 | 52 | 1004.8 |
| 20260504023050 | 54 | 0 | 0.0 | 0.9 | 0.00 | 0.00 | 0.00 | 49 | 1004.8 |
| 20260504021549 | 56 | 0 | 0.0 | 0.0 | 0.00 | 0.00 | 0.00 | 47 | 1004.6 |
| 20260504020050 | 57 | 0 | 0.0 | 0.0 | 0.00 | 0.00 | 0.00 | 44 | 1004.8 |
| 20260504014550 | 60 | 0 | 0.0 | 0.0 | 0.00 | 0.00 | 0.00 | 39 | 1004.6 |
| 20260504013050 | 63 | 0 | 0.0 | 0.0 | 0.00 | 0.00 | 0.00 | 32 | 1004.7 |
| 20260504011548 | 65 | 0 | 0.0 | 0.9 | 0.00 | 0.00 | 0.00 | 30 | 1004.7 |
| 20260504010051 | 66 | 0 | 0.0 | 5.2 | 0.00 | 0.00 | 0.00 | 29 | 1004.8 |
| 20260504004549 | 67 | 273 | 0.9 | 4.3 | 0.00 | 0.00 | 0.00 | 29 | 1004.7 |
| 20260504003048 | 68 | 0 | 1.7 | 6.1 | 0.00 | 0.00 | 0.00 | 26 | 1005.0 |
| 20260504001550 | 70 | 286 | 4.3 | 9.6 | 0.00 | 0.00 | 0.00 | 24 | 1005.0 |
| 20260504000131 | 71 | 252 | 3.5 | 10.4 | 0.00 | 0.00 | 0.00 | 24 | 1004.9 |
| 20260503234550 | 71 | 288 | 2.6 | 12.2 | 0.00 | 0.00 | 0.00 | 25 | 1005.1 |
| 20260503233054 | 71 | 341 | 6.1 | 13.9 | 0.00 | 0.00 | 0.00 | 25 | 1005.0 |
| 20260503231554 | 71 | 269 | 4.3 | 14.8 | 0.00 | 0.00 | 0.00 | 25 | 1005.2 |
| 20260503230059 | 71 | 264 | 6.1 | 12.2 | 0.00 | 0.00 | 0.00 | 27 | 1005.2 |
| 20260503224556 | 71 | 300 | 5.2 | 11.3 | 0.00 | 0.00 | 0.00 | 27 | 1005.3 |
| 20260503223057 | 71 | 312 | 3.5 | 12.2 | 0.00 | 0.00 | 0.00 | 25 | 1005.4 |
| 20260503221554 | 72 | 288 | 3.5 | 13.0 | 0.00 | 0.00 | 0.00 | 24 | 1005.4 |
| 20260503220056 | 71 | 263 | 4.3 | 13.9 | 0.00 | 0.00 | 0.00 | 24 | 1005.2 |
| 20260503214555 | 71 | 336 | 4.3 | 13.9 | 0.00 | 0.00 | 0.00 | 25 | 1005.3 |
| 20260503213054 | 71 | 312 | 3.5 | 14.8 | 0.00 | 0.00 | 0.00 | 23 | 1005.3 |
| 20260503211601 | 71 | 4 | 5.2 | 11.3 | 0.00 | 0.00 | 0.00 | 24 | 1005.3 |
| 20260503210050 | 71 | 275 | 3.5 | 12.2 | 0.00 | 0.00 | 0.00 | 25 | 1005.3 |
| 20260503204556 | 71 | 329 | 5.2 | 12.2 | 0.00 | 0.00 | 0.00 | 28 | 1005.5 |
| 20260503203108 | 71 | 0 | 4.3 | 9.6 | 0.00 | 0.00 | 0.00 | 30 | 1005.4 |
| 20260503201551 | 72 | 310 | 2.6 | 7.8 | 0.00 | 0.00 | 0.00 | 32 | 1005.7 |
| 20260503200055 | 70 | 342 | 8.7 | 16.5 | 0.00 | 0.00 | 0.00 | 33 | 1005.9 |
| 20260503194555 | 70 | 302 | 3.5 | 10.4 | 0.00 | 0.00 | 0.00 | 33 | 1006.0 |
| 20260503193056 | 70 | 342 | 3.5 | 10.4 | 0.00 | 0.00 | 0.00 | 34 | 1005.6 |
| 20260503191550 | 70 | 263 | 4.3 | 14.8 | 0.00 | 0.00 | 0.00 | 35 | 1006.0 |
| 20260503190050 | 70 | 317 | 4.3 | 13.0 | 0.00 | 0.00 | 0.00 | 35 | 1006.1 |
| 20260503184611 | 69 | 360 | 4.3 | 13.0 | 0.00 | 0.00 | 0.00 | 34 | 1006.0 |
| 20260503183100 | 70 | 341 | 2.6 | 11.3 | 0.00 | 0.00 | 0.00 | 34 | 1006.1 |
| 20260503181557 | 69 | 359 | 2.6 | 16.5 | 0.00 | 0.00 | 0.00 | 33 | 1006.2 |
| 20260503180057 | 68 | 263 | 4.3 | 13.0 | 0.00 | 0.00 | 0.00 | 35 | 1006.4 |
| 20260503174553 | 68 | 341 | 3.5 | 12.2 | 0.00 | 0.00 | 0.00 | 37 | 1006.4 |
| 20260503173051 | 68 | 286 | 7.8 | 13.9 | 0.00 | 0.00 | 0.00 | 37 | 1006.4 |
| 20260503171609 | 66 | 77 | 0.9 | 16.5 | 0.00 | 0.00 | 0.00 | 41 | 1006.6 |
| 20260503090107 | 57 | 153 | 5.2 | 14.8 | 0.00 | 0.00 | 0.00 | 45 | 1006.2 |
| 20260503081601 | 53 | 8 | 0.9 | 4.3 | 0.00 | 0.00 | 0.00 | 62 | 1006.9 |
| 20260503080111 | 52 | 174 | 0.0 | 3.5 | 0.00 | 0.00 | 0.00 | 64 | 1007.1 |
| 20260503071606 | 54 | 0 | 0.0 | 2.6 | 0.00 | 0.00 | 0.00 | 55 | 1008.5 |